This is the latest recevied weather packets stored in our database for station/object KG4YZY-1. If no packets are shown the sender has not sent any weather packets the latest 10 day(s).
| Time | Temp. | Humidity | Pressure | Rain* | Wind** | Luminosity | Snow |
|---|---|---|---|---|---|---|---|
| 1777574403 | 27.22° C | 70% | 1013.6 hPa | 0 mm | - | - | - |
| 1777574103 | 27.78° C | 68% | 1013.7 hPa | 0 mm | - | - | - |
| 1777573803 | 27.78° C | 69% | 1013.8 hPa | 0 mm | - | - | - |
| 1777573504 | 27.78° C | 70% | 1014.1 hPa | 0 mm | - | - | - |
| 1777573204 | 28.33° C | 71% | 1014.3 hPa | 0 mm | - | - | - |
| 1777572903 | 28.33° C | 70% | 1014.2 hPa | 0 mm | - | - | - |
| 1777572604 | 28.33° C | 70% | 1014.1 hPa | 0 mm | - | - | - |
| 1777572304 | 28.33° C | 69% | 1014.1 hPa | 0 mm | - | - | - |
| 1777572004 | 28.33° C | 69% | 1014.1 hPa | 0 mm | - | - | - |
| 1777571704 | 28.33° C | 68% | 1014.2 hPa | 0 mm | - | - | - |
| 1777571404 | 28.33° C | 66% | 1014.2 hPa | 0 mm | - | - | - |
| 1777571103 | 28.33° C | 68% | 1014.3 hPa | 0 mm | - | - | - |
| 1777570804 | 28.33° C | 67% | 1014.3 hPa | 0 mm | - | - | - |
| 1777570505 | 27.78° C | 68% | 1014.3 hPa | 0 mm | - | - | - |
| 1777570203 | 27.78° C | 70% | 1014.4 hPa | 0 mm | - | - | - |
| 1777569905 | 27.78° C | 69% | 1014.4 hPa | 0 mm | - | - | - |
| 1777569604 | 27.78° C | 69% | 1014.4 hPa | 0 mm | - | - | - |
| 1777569304 | 27.78° C | 68% | 1014.6 hPa | 0 mm | - | - | - |
| 1777569004 | 27.78° C | 69% | 1014.6 hPa | 0 mm | - | - | - |
| 1777568704 | 27.78° C | 71% | 1014.5 hPa | 0 mm | - | - | - |
| 1777568403 | 27.22° C | 70% | 1014.6 hPa | 0 mm | - | - | - |
| 1777568104 | 27.78° C | 69% | 1014.8 hPa | 0 mm | - | - | - |
| 1777567803 | 27.78° C | 65% | 1014.8 hPa | 0 mm | - | - | - |
| 1777567504 | 27.78° C | 66% | 1014.7 hPa | 0 mm | - | - | - |
| 1777567204 | 27.78° C | 64% | 1014.6 hPa | 0 mm | - | - | - |
* Rain latest hour (hover to see other rain measurements)
** Current wind speed in m/s (hover to see current wind gust speed)